Weather History for Benton Harbor, MI

Change the Weather History Date:

Sunday, February 17, 2013

  Actual Average Record
Temperature  
Mean Temperature 19 °F -  
Max Temperature 26 °F 35 °F 57 °F (2011)
Min Temperature 12 °F 18 °F -8 °F (1979)
Degree Days  
Heating Degree Days 46    
Moisture  
Dew Point 12 °F    
Average Humidity 75    
Maximum Humidity 88    
Minimum Humidity 44    
Precipitation  
Precipitation 0.02 in - - ()
Sea Level Pressure  
Sea Level Pressure 30.16 in    
Wind  
Wind Speed 5 mph (ESE)    
Max Wind Speed 8 mph    
Max Gust Speed -    
Visibility 6 miles    
Events Snow    
Averages and records for this station are not official NWS values.
T = Trace of Precipitation, MM = Missing Value Source: NWS Daily Summary

Daily Weather History Graph

Daily Weather History Graph

Search for Another Location

Airport:

Trip Planner

Search our weather history database for the weather conditions in past years. The results will help you decide how hot, cold, wet, or windy it might be!

Date:

Astronomy

Feb. 17, 2013 Rise Set
Actual Time 7:38 AM EST 6:21 PM EST
Civil Twilight 7:10 AM EST 6:49 PM EST
Nautical Twilight 6:37 AM EST 7:22 PM EST
Astronomical Twilight 6:05 AM EST 7:55 PM EST
Moon 11:22 AM EST (2/17) 1:24 AM EST (2/17)
Length of Visible Light 11h 39m
Length of Day
10h 42m
Waxing Crescent, 49% of the Moon is Illuminated
Feb 17
Waxing Crescent
Feb 17
First Quarter
Feb 25
Full
Mar 4
Last Quarter
Mar 11
New

Hourly Weather History & Observations

Time (EST) Temp. Windchill Dew Point Humidity Pressure Visibility Wind Dir Wind Speed Gust Speed Precip Events Conditions
12:11 AM 19.4 °F 10.4 °F 14.0 °F 80% 30.11 in 2.5 mi NE 6.9 mph - 0.00 in Snow Light Snow
12:19 AM 19.4 °F 10.4 °F 15.8 °F 86% 30.11 in 1.2 mi NE 6.9 mph - 0.00 in Snow Light Snow
12:53 AM 18.0 °F 11.1 °F 14.0 °F 84% 30.15 in 2.0 mi ENE 4.6 mph - 0.01 in Snow Light Snow
1:07 AM 17.6 °F 9.3 °F 14.0 °F 86% 30.12 in 2.5 mi ENE 5.8 mph - 0.00 in Snow Light Snow
1:18 AM 17.6 °F 10.7 °F 14.0 °F 86% 30.11 in 1.8 mi ENE 4.6 mph - 0.00 in Snow Light Snow
1:22 AM 17.6 °F 8.2 °F 14.0 °F 86% 30.12 in 1.8 mi ENE 6.9 mph - 0.00 in Snow Light Snow
1:31 AM 17.6 °F 10.7 °F 14.0 °F 86% 30.12 in 3.0 mi East 4.6 mph - 0.00 in Snow Light Snow
1:53 AM 18.0 °F 12.7 °F 14.0 °F 84% 30.15 in 3.0 mi East 3.5 mph - 0.00 in Snow Light Snow
2:01 AM 17.6 °F 10.7 °F 12.2 °F 79% 30.12 in 2.0 mi ENE 4.6 mph - 0.00 in Snow Light Snow
2:12 AM 17.6 °F 9.3 °F 12.2 °F 79% 30.12 in 1.2 mi ENE 5.8 mph - 0.00 in Snow Light Snow
2:15 AM 17.6 °F 10.7 °F 12.2 °F 79% 30.12 in 0.8 mi East 4.6 mph - 0.00 in Snow Light Snow
2:45 AM 17.6 °F - 14.0 °F 86% 30.12 in 1.5 mi Calm Calm - 0.01 in Snow Light Snow
2:53 AM 17.1 °F 11.7 °F 14.0 °F 88% 30.16 in 1.8 mi East 3.5 mph - 0.01 in Snow Light Snow
3:01 AM 17.6 °F 10.7 °F 14.0 °F 86% 30.12 in 2.5 mi East 4.6 mph - 0.00 in Snow Light Snow
3:08 AM 17.6 °F 12.3 °F 12.2 °F 79% 30.13 in 5.0 mi ENE 3.5 mph - 0.00 in Snow Light Snow
3:15 AM 17.6 °F - 12.2 °F 79% 30.13 in 1.8 mi Calm Calm - 0.00 in Snow Light Snow
3:28 AM 17.6 °F - 12.2 °F 79% 30.13 in 3.0 mi Calm Calm - 0.00 in Snow Light Snow
3:46 AM 15.8 °F - 12.2 °F 86% 30.13 in 10.0 mi Calm Calm - 0.00 in   Overcast
3:53 AM 16.0 °F - 10.9 °F 81% 30.17 in 10.0 mi Calm Calm - 0.00 in   Overcast
4:53 AM 14.0 °F - 10.9 °F 88% 30.17 in 10.0 mi Calm Calm - N/A   Overcast
5:53 AM 14.0 °F - 10.9 °F 88% 30.19 in 10.0 mi Calm Calm - N/A   Overcast
6:53 AM 12.9 °F - 10.0 °F 88% 30.20 in 10.0 mi Calm Calm - N/A   Overcast
7:53 AM 15.1 °F 9.4 °F 10.0 °F 80% 30.21 in 10.0 mi East 3.5 mph - N/A   Overcast
8:53 AM 16.0 °F 10.4 °F 10.9 °F 81% 30.22 in 10.0 mi SE 3.5 mph - N/A   Overcast
9:53 AM 18.0 °F 11.1 °F 12.0 °F 78% 30.23 in 6.0 mi SE 4.6 mph - 0.00 in Snow Light Snow
10:43 AM 19.4 °F 12.8 °F 12.2 °F 74% 30.20 in 4.0 mi SE 4.6 mph - 0.00 in Snow Light Snow
10:53 AM 19.9 °F 10.1 °F 12.9 °F 74% 30.23 in 5.0 mi SE 8.1 mph - 0.00 in Snow Light Snow
11:53 AM 21.0 °F 12.4 °F 15.1 °F 78% 30.24 in 3.0 mi SSE 6.9 mph - 0.00 in Snow Light Snow
11:57 AM 21.2 °F 11.7 °F 14.0 °F 74% 30.20 in 2.5 mi SSE 8.1 mph - 0.00 in Snow Light Snow
12:01 PM 21.2 °F 14.9 °F 14.0 °F 74% 30.20 in 3.0 mi SSE 4.6 mph - 0.00 in Snow Light Snow
12:11 PM 21.2 °F 11.7 °F 15.8 °F 80% 30.20 in 1.8 mi SE 8.1 mph - 0.00 in Snow Light Snow
12:24 PM 21.2 °F 12.6 °F 15.8 °F 80% 30.20 in 3.0 mi SE 6.9 mph - 0.00 in Snow Light Snow
12:49 PM 21.2 °F 14.9 °F 15.8 °F 80% 30.19 in 2.5 mi South 4.6 mph - 0.00 in Snow Light Snow
12:53 PM 21.9 °F 13.4 °F 16.0 °F 78% 30.23 in 3.0 mi South 6.9 mph - 0.00 in Snow Light Snow
1:53 PM 25.0 °F 17.1 °F 12.9 °F 60% 30.21 in 10.0 mi WSW 6.9 mph - 0.00 in   Overcast
2:53 PM 25.0 °F 17.1 °F 10.9 °F 55% 30.19 in 10.0 mi SSW 6.9 mph - N/A   Partly Cloudy
3:53 PM 26.1 °F 19.4 °F 9.0 °F 49% 30.19 in 10.0 mi South 5.8 mph - N/A   Partly Cloudy
4:53 PM 26.1 °F 18.4 °F 12.9 °F 58% 30.18 in 10.0 mi West 6.9 mph - N/A   Clear
5:53 PM 26.1 °F 19.4 °F 7.0 °F 44% 30.17 in 10.0 mi South 5.8 mph - N/A   Clear
6:53 PM 24.1 °F 18.2 °F 7.0 °F 48% 30.16 in 10.0 mi SE 4.6 mph - N/A   Clear
7:53 PM 23.0 °F - 6.1 °F 48% 30.16 in 10.0 mi Calm Calm - N/A   Clear
8:53 PM 21.0 °F 14.6 °F 7.0 °F 55% 30.16 in 10.0 mi ESE 4.6 mph - N/A   Clear
9:53 PM 19.9 °F 13.4 °F 7.0 °F 57% 30.15 in 10.0 mi SE 4.6 mph - N/A   Clear
10:53 PM 21.9 °F 12.5 °F 10.0 °F 60% 30.14 in 10.0 mi SE 8.1 mph - N/A   Clear